Masthead Graphic

Historical weather data from Belfast International Airport

The table below shows the weather reports for the last 24 hours taken from the METAR weather bulletins issued by Belfast International Airport. Readings should be at 30 min intervals however they are not always available

Date Time Pressure mb Temp. Wind Kts Wind Dir. Gusts Kts Conditions
22/02/2024 10:50:00 979 4 11 240 partly cloudy
22/02/2024 10:20:00 979 4 8 230 clear skies
22/02/2024 09:50:00 979 4 8 260 mostly cloudy
22/02/2024 09:20:00 979 4 10 270 mostly cloudy
22/02/2024 08:50:00 979 4 10 260 scattered clouds
22/02/2024 08:20:00 979 4 9 240 scattered clouds
22/02/2024 07:50:00 979 4 7 230 scattered clouds
22/02/2024 07:20:00 979 4 7 220 mostly cloudy
22/02/2024 06:50:00 979 4 8 220 scattered clouds
22/02/2024 06:20:00 979 4 7 210 scattered clouds
22/02/2024 05:50:00 980 4 6 210 mostly cloudy
22/02/2024 05:20:00 980 4 7 230 mostly cloudy
22/02/2024 04:50:00 980 4 7 240 scattered clouds
22/02/2024 04:20:00 980 5 10 240 mostly cloudy
22/02/2024 03:50:00 980 5 9 230 partly cloudy
22/02/2024 03:20:00 981 5 9 230 clear skies
22/02/2024 02:50:00 981 5 9 210 clear skies
22/02/2024 02:20:00 982 5 12 220 clear skies
22/02/2024 01:50:00 982 6 10 220 scattered clouds
22/02/2024 01:20:00 983 6 14 230 scattered clouds
22/02/2024 00:50:00 983 6 17 220 scattered clouds
21/02/2024 23:50:00 984 6 8 210 scattered clouds
21/02/2024 21:50:00 986 7 12 180 clear skies
21/02/2024 21:20:00 987 6 10 180 clear skies
21/02/2024 19:50:00 989 6 8 200 clear skies
Next Last